Time,TemperatureF,DewpointF,PressureIn,WindDirection,WindDirectionDegrees,WindSpeedMPH,WindSpeedGustMPH,Humidity,HourlyPrecipIn,Conditions,Clouds,dailyrainin,SoftwareType,DateUTC
2013-04-29 00:13:00,47.7,27.9,30.05,West,270,0.0,-999.0,46,-99.99,,,0.00,Acu-Link.com,2013-04-29 04:13:00,
2013-04-29 00:28:00,48.0,28.2,30.05,SSW,202,0.0,-999.0,46,-99.99,,,0.00,Acu-Link.com,2013-04-29 04:28:00,
2013-04-29 00:44:00,47.5,28.3,30.05,South,180,0.0,-999.0,47,-99.99,,,0.00,Acu-Link.com,2013-04-29 04:44:00,
2013-04-29 00:59:00,47.1,27.9,30.05,SE,135,0.0,-999.0,47,-99.99,,,0.00,Acu-Link.com,2013-04-29 04:59:00,
2013-04-29 01:14:00,47.1,27.4,30.05,NNW,337,0.0,-999.0,46,-99.99,,,0.00,Acu-Link.com,2013-04-29 05:14:00,
2013-04-29 01:29:00,47.1,27.9,30.04,NW,315,0.0,-999.0,47,-99.99,,,0.00,Acu-Link.com,2013-04-29 05:29:00,
2013-04-29 01:44:00,47.3,28.6,30.04,NW,315,0.0,-999.0,48,-99.99,,,0.00,Acu-Link.com,2013-04-29 05:44:00,
2013-04-29 02:00:00,47.1,29.4,30.04,WNW,292,0.0,-999.0,50,-99.99,,,0.00,Acu-Link.com,2013-04-29 06:00:00,
2013-04-29 02:15:00,46.9,30.7,30.03,WNW,292,0.0,-999.0,53,-99.99,,,0.00,Acu-Link.com,2013-04-29 06:15:00,
2013-04-29 02:30:00,46.9,32.1,30.03,West,270,0.0,-999.0,56,-99.99,,,0.00,Acu-Link.com,2013-04-29 06:30:00,
2013-04-29 02:45:00,46.8,33.2,30.02,WSW,247,0.0,-999.0,59,-99.99,,,0.00,Acu-Link.com,2013-04-29 06:45:00,
2013-04-29 03:00:00,46.6,33.9,30.02,South,180,0.0,-999.0,61,-99.99,,,0.00,Acu-Link.com,2013-04-29 07:00:00,
2013-04-29 03:16:00,46.8,34.0,30.02,South,180,0.0,-999.0,61,-99.99,,,0.00,Acu-Link.com,2013-04-29 07:16:00,
2013-04-29 03:31:00,46.4,34.5,30.02,WSW,247,0.0,-999.0,63,-99.99,,,0.00,Acu-Link.com,2013-04-29 07:31:00,
2013-04-29 03:46:00,45.7,35.4,30.01,NNE,22,0.0,-999.0,67,-99.99,,,0.00,Acu-Link.com,2013-04-29 07:46:00,
2013-04-29 04:01:00,45.5,35.2,30.02,WNW,292,1.6,-999.0,67,-99.99,,,0.00,Acu-Link.com,2013-04-29 08:01:00,
2013-04-29 04:17:00,45.3,35.0,30.02,WNW,292,0.0,-999.0,67,-99.99,,,0.00,Acu-Link.com,2013-04-29 08:17:00,
2013-04-29 04:32:00,45.1,35.2,30.02,NNW,337,0.0,-999.0,68,-99.99,,,0.00,Acu-Link.com,2013-04-29 08:32:00,
2013-04-29 04:47:00,45.1,34.8,30.02,NNE,22,0.0,-999.0,67,-99.99,,,0.00,Acu-Link.com,2013-04-29 08:47:00,
2013-04-29 05:02:00,45.0,35.4,30.02,WSW,247,0.0,-999.0,69,-99.99,,,0.00,Acu-Link.com,2013-04-29 09:02:00,
2013-04-29 05:17:00,45.0,36.1,30.03,NNW,337,0.0,-999.0,71,-99.99,,,0.00,Acu-Link.com,2013-04-29 09:17:00,
2013-04-29 05:33:00,44.8,35.6,30.03,WNW,292,0.0,-999.0,70,-99.99,,,0.00,Acu-Link.com,2013-04-29 09:33:00,
2013-04-29 05:48:00,44.6,35.8,30.03,South,180,0.0,-999.0,71,-99.99,,,0.00,Acu-Link.com,2013-04-29 09:48:00,
2013-04-29 06:03:00,44.8,37.0,30.03,South,180,0.0,-999.0,74,-99.99,,,0.00,Acu-Link.com,2013-04-29 10:03:00,
2013-04-29 06:18:00,45.3,37.9,30.03,WNW,292,0.0,-999.0,75,-99.99,,,0.00,Acu-Link.com,2013-04-29 10:18:00,
2013-04-29 06:33:00,45.5,38.4,30.04,West,270,0.0,-999.0,76,-99.99,,,0.00,Acu-Link.com,2013-04-29 10:33:00,
2013-04-29 06:49:00,46.6,39.1,30.04,NNE,22,0.0,-999.0,75,-99.99,,,0.00,Acu-Link.com,2013-04-29 10:49:00,
2013-04-29 07:04:00,48.9,40.3,30.04,SE,135,0.0,-999.0,72,-99.99,,,0.00,Acu-Link.com,2013-04-29 11:04:00,
2013-04-29 07:19:00,50.5,41.1,30.04,ESE,112,0.0,-999.0,70,-99.99,,,0.00,Acu-Link.com,2013-04-29 11:19:00,
2013-04-29 07:34:00,53.4,42.3,30.05,ESE,112,2.7,-999.0,66,-99.99,,,0.00,Acu-Link.com,2013-04-29 11:34:00,
2013-04-29 07:49:00,54.7,43.5,30.05,SSE,157,2.7,-999.0,66,-99.99,,,0.00,Acu-Link.com,2013-04-29 11:49:00,
2013-04-29 08:05:00,56.3,44.3,30.05,East,90,0.0,-999.0,64,-99.99,,,0.00,Acu-Link.com,2013-04-29 12:05:00,
2013-04-29 08:20:00,59.4,46.3,30.05,ESE,112,2.2,-999.0,62,-99.99,,,0.00,Acu-Link.com,2013-04-29 12:20:00,
2013-04-29 08:35:00,59.4,46.8,30.05,ESE,112,2.2,-999.0,63,-99.99,,,0.00,Acu-Link.com,2013-04-29 12:35:00,
2013-04-29 08:50:00,61.2,47.6,30.05,SSW,202,0.0,-999.0,61,-99.99,,,0.00,Acu-Link.com,2013-04-29 12:50:00,
2013-04-29 09:05:00,60.1,46.6,30.05,West,270,3.1,-999.0,61,-99.99,,,0.00,Acu-Link.com,2013-04-29 13:05:00,
2013-04-29 09:21:00,60.8,46.8,30.05,ESE,112,3.8,-999.0,60,-99.99,,,0.00,Acu-Link.com,2013-04-29 13:21:00,
2013-04-29 09:36:00,60.4,46.5,30.05,South,180,0.0,-999.0,60,-99.99,,,0.00,Acu-Link.com,2013-04-29 13:36:00,
2013-04-29 09:51:00,62.1,47.6,30.04,NW,315,2.7,-999.0,59,-99.99,,,0.00,Acu-Link.com,2013-04-29 13:51:00,
2013-04-29 10:06:00,62.2,46.3,30.04,ESE,112,2.2,-999.0,56,-99.99,,,0.00,Acu-Link.com,2013-04-29 14:06:00,
2013-04-29 10:22:00,62.4,47.0,30.05,SW,225,3.1,-999.0,57,-99.99,,,0.00,Acu-Link.com,2013-04-29 14:22:00,
2013-04-29 10:37:00,64.0,45.0,30.04,SSW,202,3.8,-999.0,50,-99.99,,,0.00,Acu-Link.com,2013-04-29 14:37:00,
2013-04-29 10:52:00,65.7,46.5,30.04,WNW,292,2.7,-999.0,50,-99.99,,,0.00,Acu-Link.com,2013-04-29 14:52:00,
2013-04-29 11:07:00,65.5,45.3,30.04,SSW,202,4.7,-999.0,48,-99.99,,,0.00,Acu-Link.com,2013-04-29 15:07:00,
2013-04-29 11:22:00,65.5,45.3,30.03,ESE,112,4.3,-999.0,48,-99.99,,,0.00,Acu-Link.com,2013-04-29 15:22:00,
2013-04-29 11:38:00,66.4,46.6,30.03,ESE,112,5.1,-999.0,49,-99.99,,,0.00,Acu-Link.com,2013-04-29 15:38:00,
2013-04-29 11:53:00,66.4,46.1,30.02,South,180,3.1,-999.0,48,-99.99,,,0.00,Acu-Link.com,2013-04-29 15:53:00,
2013-04-29 12:08:00,67.3,45.8,30.03,SE,135,4.7,-999.0,46,-99.99,,,0.00,Acu-Link.com,2013-04-29 16:08:00,
2013-04-29 12:23:00,66.6,44.0,30.01,SE,135,4.3,-999.0,44,-99.99,,,0.00,Acu-Link.com,2013-04-29 16:23:00,
2013-04-29 12:39:00,67.8,42.6,30.01,SSE,157,5.1,-999.0,40,-99.99,,,0.00,Acu-Link.com,2013-04-29 16:39:00,
2013-04-29 12:54:00,67.6,39.7,30.01,East,90,6.3,-999.0,36,-99.99,,,0.00,Acu-Link.com,2013-04-29 16:54:00,
2013-04-29 13:09:00,67.8,40.6,30.00,North,0,3.1,-999.0,37,-99.99,,,0.00,Acu-Link.com,2013-04-29 17:09:00,
2013-04-29 13:24:00,68.2,38.7,30.00,ESE,112,4.7,-999.0,34,-99.99,,,0.00,Acu-Link.com,2013-04-29 17:24:00,
2013-04-29 13:39:00,69.4,42.0,30.00,ESE,112,4.3,-999.0,37,-99.99,,,0.00,Acu-Link.com,2013-04-29 17:39:00,
2013-04-29 13:55:00,68.2,42.3,29.99,SE,135,4.7,-999.0,39,-99.99,,,0.00,Acu-Link.com,2013-04-29 17:55:00,
2013-04-29 14:10:00,68.7,41.4,29.99,SE,135,4.7,-999.0,37,-99.99,,,0.00,Acu-Link.com,2013-04-29 18:10:00,
2013-04-29 14:25:00,67.6,40.4,29.98,ESE,112,4.7,-999.0,37,-99.99,,,0.00,Acu-Link.com,2013-04-29 18:25:00,
2013-04-29 14:40:00,69.6,42.2,29.98,WNW,292,2.2,-999.0,37,-99.99,,,0.00,Acu-Link.com,2013-04-29 18:40:00,
2013-04-29 14:55:00,69.1,40.3,29.98,ESE,112,5.8,-999.0,35,-99.99,,,0.00,Acu-Link.com,2013-04-29 18:55:00,
2013-04-29 15:11:00,68.2,38.7,29.97,SE,135,4.7,-999.0,34,-99.99,,,0.00,Acu-Link.com,2013-04-29 19:11:00,
2013-04-29 15:26:00,68.2,39.5,29.97,SSE,157,3.1,-999.0,35,-99.99,,,0.00,Acu-Link.com,2013-04-29 19:26:00,
2013-04-29 15:41:00,68.2,40.9,29.97,ESE,112,2.2,-999.0,37,-99.99,,,0.00,Acu-Link.com,2013-04-29 19:41:00,
2013-04-29 15:56:00,69.1,41.7,29.97,NW,315,0.0,-999.0,37,-99.99,,,0.00,Acu-Link.com,2013-04-29 19:56:00,
2013-04-29 16:11:00,67.1,40.0,29.97,WNW,292,4.7,-999.0,37,-99.99,,,0.00,Acu-Link.com,2013-04-29 20:11:00,
2013-04-29 16:27:00,67.3,39.4,29.97,NW,315,0.0,-999.0,36,-99.99,,,0.00,Acu-Link.com,2013-04-29 20:27:00,
2013-04-29 16:42:00,67.3,40.1,29.97,SSW,202,1.6,-999.0,37,-99.99,,,0.00,Acu-Link.com,2013-04-29 20:42:00,
2013-04-29 16:57:00,66.2,39.2,29.97,ESE,112,4.7,-999.0,37,-99.99,,,0.00,Acu-Link.com,2013-04-29 20:57:00,
2013-04-29 17:12:00,65.1,38.2,29.97,NNE,22,3.8,-999.0,37,-99.99,,,0.00,Acu-Link.com,2013-04-29 21:12:00,
2013-04-29 17:28:00,64.4,36.9,29.97,NNE,22,2.7,-999.0,36,-99.99,,,0.00,Acu-Link.com,2013-04-29 21:28:00,
2013-04-29 17:43:00,64.2,36.7,29.98,SE,135,2.2,-999.0,36,-99.99,,,0.00,Acu-Link.com,2013-04-29 21:43:00,
2013-04-29 17:58:00,63.5,34.6,29.98,West,270,6.7,-999.0,34,-99.99,,,0.00,Acu-Link.com,2013-04-29 21:58:00,
2013-04-29 18:13:00,62.4,34.4,29.99,WSW,247,6.7,-999.0,35,-99.99,,,0.00,Acu-Link.com,2013-04-29 22:13:00,
2013-04-29 18:28:00,61.9,34.6,30.00,ESE,112,1.6,-999.0,36,-99.99,,,0.00,Acu-Link.com,2013-04-29 22:28:00,
2013-04-29 18:44:00,61.2,34.0,30.00,West,270,0.0,-999.0,36,-99.99,,,0.00,Acu-Link.com,2013-04-29 22:44:00,
2013-04-29 18:59:00,60.6,34.2,30.00,SSW,202,1.1,-999.0,37,-99.99,,,0.00,Acu-Link.com,2013-04-29 22:59:00,
2013-04-29 19:14:00,60.1,32.3,30.00,South,180,2.2,-999.0,35,-99.99,,,0.00,Acu-Link.com,2013-04-29 23:14:00,
2013-04-29 19:29:00,59.5,31.9,30.01,North,0,3.1,-999.0,35,-99.99,,,0.00,Acu-Link.com,2013-04-29 23:29:00,
2013-04-29 19:44:00,59.0,31.4,30.01,ESE,112,1.6,-999.0,35,-99.99,,,0.00,Acu-Link.com,2013-04-29 23:44:00,
2013-04-29 20:00:00,58.5,30.2,30.01,WNW,292,0.0,-999.0,34,-99.99,,,0.00,Acu-Link.com,2013-04-30 00:00:00,
2013-04-29 20:15:00,57.7,29.6,30.02,South,180,2.7,-999.0,34,-99.99,,,0.00,Acu-Link.com,2013-04-30 00:15:00,
2013-04-29 20:30:00,57.2,29.1,30.02,West,270,3.8,-999.0,34,-99.99,,,0.00,Acu-Link.com,2013-04-30 00:30:00,
2013-04-29 20:45:00,56.8,28.8,30.02,South,180,1.1,-999.0,34,-99.99,,,0.00,Acu-Link.com,2013-04-30 00:45:00,
2013-04-29 21:00:00,56.5,28.5,30.03,NW,315,3.8,-999.0,34,-99.99,,,0.00,Acu-Link.com,2013-04-30 01:00:00,
2013-04-29 21:16:00,56.1,28.8,30.04,SSW,202,0.0,-999.0,35,-99.99,,,0.00,Acu-Link.com,2013-04-30 01:16:00,
2013-04-29 21:31:00,55.8,28.5,30.04,West,270,0.0,-999.0,35,-99.99,,,0.00,Acu-Link.com,2013-04-30 01:31:00,
2013-04-29 21:46:00,55.6,26.2,30.04,ESE,112,0.0,-999.0,32,-99.99,,,0.00,Acu-Link.com,2013-04-30 01:46:00,
2013-04-29 22:01:00,55.4,27.5,30.04,NW,315,0.0,-999.0,34,-99.99,,,0.00,Acu-Link.com,2013-04-30 02:01:00,
2013-04-29 22:17:00,55.0,25.7,30.04,South,180,1.6,-999.0,32,-99.99,,,0.00,Acu-Link.com,2013-04-30 02:17:00,
2013-04-29 22:32:00,54.9,24.8,30.04,NW,315,0.0,-999.0,31,-99.99,,,0.00,Acu-Link.com,2013-04-30 02:32:00,
2013-04-29 22:47:00,54.5,25.3,30.04,NE,45,0.0,-999.0,32,-99.99,,,0.00,Acu-Link.com,2013-04-30 02:47:00,
2013-04-29 23:02:00,54.3,25.8,30.04,SSE,157,0.0,-999.0,33,-99.99,,,0.00,Acu-Link.com,2013-04-30 03:02:00,
2013-04-29 23:17:00,54.1,24.9,30.05,West,270,0.0,-999.0,32,-99.99,,,0.00,Acu-Link.com,2013-04-30 03:17:00,
2013-04-29 23:33:00,54.0,24.0,30.04,NW,315,1.1,-999.0,31,-99.99,,,0.00,Acu-Link.com,2013-04-30 03:33:00,
2013-04-29 23:48:00,53.6,24.5,30.04,NW,315,0.0,-999.0,32,-99.99,,,0.00,Acu-Link.com,2013-04-30 03:48:00,